Location: Shenandoah County Park
(38.9356°N, 78.4524°W)
Time: 22:11:59
(UTC-04:00)

Courier 1B Rocket - Visible Passes

Search period start: 12 July 2024 00:00
Search period end: 22 July 2024 00:00
Orbit: 920 x 1201 km, 28.2° (Epoch: 12 July)

Date Brightness Start Highest point End Pass type
(mag) Time Alt. Az. Time Alt. Az. Time Alt. Az.
12 Jul 6.9 00:00:31 10° WSW 00:01:46 14° SW 00:01:46 14° SW visible
12 Jul 5.9 21:05:21 10° WSW 21:11:32 34° S 21:17:20 10° ESE visible
12 Jul 6.1 22:58:55 10° WSW 23:04:13 25° SSW 23:04:13 25° SSW visible
13 Jul 6.0 21:57:27 10° WSW 22:03:19 30° S 22:06:40 20° SSE visible
13 Jul 7.0 23:52:08 10° WSW 23:53:01 12° SW 23:53:01 12° SW visible
14 Jul 6.0 20:56:04 10° WSW 21:02:20 33° S 21:08:14 10° SE visible
14 Jul 6.3 22:50:06 10° WSW 22:55:00 21° SSW 22:55:27 21° SSW visible
15 Jul 6.3 21:48:25 10° WSW 21:54:05 26° SSW 21:57:52 16° SSE visible
16 Jul 6.7 22:41:37 10° WSW 22:45:41 16° SSW 22:46:40 16° SSW visible
17 Jul 6.6 21:39:34 10° WSW 21:44:48 22° SSW 21:49:07 12° SSE visible
18 Jul 7.0 22:33:56 10° SW 22:36:19 12° SSW 22:37:56 11° SSW visible
19 Jul 6.9 21:30:59 10° WSW 21:35:28 17° SSW 21:39:45 10° SSE visible
21 Jul 7.2 21:23:07 10° SW 21:26:03 13° SSW 21:28:55 10° S visible
